Ostend, Belgium

6:55 PM CET on February 13, 2016 (GMT +0100)
Ostend

Weather History for EBOS - January, 2014

Change the Weather History Date:

Sunday, January 19, 2014

  Actual Average Record
Temperature  
Mean Temperature 40 °F -  
Max Temperature 47 °F 43 °F 55 °F (2007)
Min Temperature 32 °F 34 °F 23 °F (2016)
Degree Days  
Heating Degree Days 25    
Moisture  
Dew Point 37 °F    
Average Humidity 83    
Maximum Humidity 100    
Minimum Humidity 70    
Precipitation  
Precipitation 0.00 in - - ()
Sea Level Pressure  
Sea Level Pressure 29.44 in    
Wind  
Wind Speed 6 mph ()    
Max Wind Speed 13 mph    
Max Gust Speed -    
Visibility 7.5 miles    
Events Fog , Rain    
Averages and records for this station are not official NWS values.
T = Trace of Precipitation, MM = Missing Value Source: Averaged Metar Reports

Daily Weather History Graph

Daily Weather History Graph

Search for Another Location

Airport or City:

Trip Planner

Search our weather history database for the weather conditions in past years. The results will help you decide how hot, cold, wet, or windy it might be!

Date:

Astronomy

Jan. 19, 2014 Rise Set
Actual Time 8:42 AM CET 5:16 PM CET
Civil Twilight 8:04 AM CET 5:54 PM CET
Nautical Twilight 7:23 AM CET 6:35 PM CET
Astronomical Twilight 6:44 AM CET 7:14 PM CET
Moon 9:08 PM CET (1/19) 9:39 AM CET (1/19)
Length of Visible Light 9h 49m
Length of Day
8h 33m
Waning Gibbous, 91% of the Moon is Illuminated
Jan 19
Waning Gibbous
Jan 24
Last Quarter
Jan 30
New
Feb 6
First Quarter
Feb 15
Full

Hourly Weather History & Observations

Time (CET) Temp. Windchill Dew Point Humidity Pressure Visibility Wind Dir Wind Speed Gust Speed Precip Events Conditions
12:00 AM 41 °F - 36 °F 74% 29.37 in 17 mi East 6.7 mph - -   Mostly Cloudy
12:20 AM 41.0 °F 35.8 °F 35.6 °F 81% 29.36 in - East 8.1 mph - N/A   Clear
12:50 AM 41.0 °F 36.4 °F 35.6 °F 81% 29.36 in - ESE 6.9 mph - N/A   Clear
1:00 AM 41 °F - 35 °F 73% 29.37 in 17 mi ESE 6.7 mph - -   Mostly Cloudy
1:20 AM 41.0 °F 36.4 °F 35.6 °F 81% 29.36 in - East 6.9 mph - N/A   Clear
1:50 AM 41.0 °F 36.4 °F 35.6 °F 81% 29.36 in - ESE 6.9 mph - N/A   Clear
2:00 AM 42 °F - 36 °F 70% 29.37 in 17 mi ESE 6.7 mph - -   Mostly Cloudy
2:20 AM 42.8 °F 38.6 °F 35.6 °F 76% 29.36 in - ESE 6.9 mph - N/A   Clear
2:50 AM 42.8 °F 38.6 °F 35.6 °F 76% 29.36 in - ESE 6.9 mph - N/A   Clear
3:00 AM 42 °F - 36 °F 72% 29.37 in 17 mi ESE 6.7 mph - -   Mostly Cloudy
3:20 AM 42.8 °F 38.0 °F 35.6 °F 76% 29.36 in - East 8.1 mph - N/A   Clear
3:50 AM 42.8 °F 38.6 °F 35.6 °F 76% 29.36 in - East 6.9 mph - N/A   Clear
4:00 AM 42 °F - 36 °F 72% 29.36 in 17 mi East 6.7 mph - -   Mostly Cloudy
4:20 AM 41.0 °F 38.0 °F 35.6 °F 81% 29.33 in - ESE 4.6 mph - N/A   Clear
4:50 AM 41.0 °F 37.1 °F 35.6 °F 81% 29.33 in - East 5.8 mph - N/A   Clear
5:00 AM 41 °F - 36 °F 77% 29.34 in 17 mi East 4.5 mph - -   Mostly Cloudy
5:20 AM 41.0 °F 37.1 °F 37.4 °F 87% 29.33 in - East 5.8 mph - N/A   Clear
6:00 AM 42 °F - 37 °F 75% 29.34 in 17 mi ESE 4.5 mph - -   Mostly Cloudy
6:20 AM 42.8 °F 41.1 °F 37.4 °F 81% 29.33 in 6.2 mi ESE 3.5 mph - N/A   Mostly Cloudy
6:50 AM 42.8 °F 39.3 °F 37.4 °F 81% 29.33 in 6.2 mi East 5.8 mph - N/A   Mostly Cloudy
7:00 AM 43 °F - 38 °F 76% 29.34 in 16 mi East 4.5 mph - -   Mostly Cloudy
7:20 AM 42.8 °F 40.1 °F 39.2 °F 87% 29.33 in 6.2 mi SE 4.6 mph - N/A   Mostly Cloudy
7:50 AM 44.6 °F 41.4 °F 39.2 °F 81% 29.36 in 6.2 mi South 5.8 mph - N/A   Mostly Cloudy
8:00 AM 44 °F - 39 °F 75% 29.36 in 12 mi South 4.5 mph - -   Mostly Cloudy
8:20 AM 42.8 °F 40.1 °F 39.2 °F 87% 29.36 in 6.2 mi South 4.6 mph - N/A Rain Light Rain
8:50 AM 42.8 °F 39.3 °F 39.2 °F 87% 29.36 in 6.2 mi South 5.8 mph - N/A   Light Drizzle
9:00 AM 43 °F - 39 °F 80% 29.38 in 9 mi South 4.5 mph - - Rain Light Drizzle
9:20 AM 42.8 °F 40.1 °F 39.2 °F 87% 29.39 in 6.2 mi South 4.6 mph - N/A   Partly Cloudy
9:50 AM 42.8 °F 39.3 °F 39.2 °F 87% 29.39 in 6.2 mi South 5.8 mph - N/A   Partly Cloudy
10:00 AM 43 °F - 40 °F 83% 29.40 in 9 mi South 4.5 mph - - Rain Light Drizzle
10:20 AM 42.8 °F 40.1 °F 39.2 °F 87% 29.39 in 6.2 mi SSE 4.6 mph - N/A   Scattered Clouds
10:50 AM 44.6 °F 41.4 °F 41.0 °F 87% 29.42 in 6.2 mi South 5.8 mph - N/A   Mostly Cloudy
11:00 AM 44 °F - 40 °F 83% 29.42 in 11 mi South 6.7 mph - -   Mostly Cloudy
11:20 AM 44.6 °F 40.7 °F 41.0 °F 87% 29.42 in 6.2 mi South 6.9 mph - N/A   Mostly Cloudy
11:50 AM 44.6 °F 40.7 °F 41.0 °F 87% 29.44 in 6.2 mi South 6.9 mph - N/A   Scattered Clouds
12:00 PM 45 °F - 41 °F 80% 29.44 in 12 mi South 6.7 mph - -   Mostly Cloudy
12:20 PM 46.4 °F 42.9 °F 41.0 °F 81% 29.42 in 6.2 mi South 6.9 mph - N/A   Scattered Clouds
12:50 PM 46.4 °F 41.9 °F 41.0 °F 81% 29.42 in 6.2 mi SSW 9.2 mph - N/A   Mostly Cloudy
1:00 PM 46 °F - 41 °F 78% 29.44 in 12 mi SSW 8.9 mph - -   Partly Cloudy
1:20 PM 46.4 °F 41.5 °F 41.0 °F 81% 29.44 in 6.2 mi SSW 10.4 mph - N/A   Scattered Clouds
1:50 PM 46.4 °F 40.7 °F 41.0 °F 81% 29.44 in 6.2 mi SSW 12.7 mph - N/A   Mostly Cloudy
2:00 PM 46 °F - 41 °F 77% 29.46 in 9 mi SSW 13.4 mph - -   Mostly Cloudy
2:20 PM 46.4 °F 41.5 °F 41.0 °F 81% 29.44 in 6.2 mi SSW 10.4 mph - N/A   Scattered Clouds
2:50 PM 46.4 °F 42.4 °F 41.0 °F 81% 29.44 in 6.2 mi SSW 8.1 mph - N/A   Mostly Cloudy
3:00 PM 46 °F - 41 °F 77% 29.47 in 9 mi SSW 8.9 mph - -   Mostly Cloudy
3:20 PM 48.2 °F - 41.0 °F 76% 29.47 in 6.2 mi South 6.9 mph - N/A   Scattered Clouds
3:50 PM 46.4 °F 42.4 °F 41.0 °F 81% 29.47 in 6.2 mi SSW 8.1 mph - N/A   Scattered Clouds
4:00 PM 47 °F - 41 °F 74% 29.49 in 12 mi SSW 6.7 mph - -   Mostly Cloudy
4:20 PM 46.4 °F 42.9 °F 41.0 °F 81% 29.50 in 6.2 mi SSW 6.9 mph - N/A   Scattered Clouds
4:50 PM 44.6 °F 40.7 °F 39.2 °F 81% 29.50 in 6.2 mi SSW 6.9 mph - N/A   Partly Cloudy
5:00 PM 45 °F - 40 °F 75% 29.51 in 12 mi SSW 6.7 mph - -   Partly Cloudy
5:20 PM 42.8 °F 39.3 °F 39.2 °F 87% 29.50 in 6.2 mi SSW 5.8 mph - N/A   Partly Cloudy
5:50 PM 42.8 °F 39.3 °F 39.2 °F 87% 29.53 in 6.2 mi South 5.8 mph - N/A   Partly Cloudy
6:00 PM 43 °F - 39 °F 80%  in 12 mi South 6.7 mph - -   Scattered Clouds
6:20 PM 41.0 °F 37.1 °F 37.4 °F 87% 29.53 in 6.2 mi SSW 5.8 mph - N/A   Partly Cloudy
6:50 PM 39.2 °F - 35.6 °F 87% 29.53 in 6.2 mi Variable 1.2 mph - N/A   Partly Cloudy
7:00 PM 39 °F - 35 °F 82% 29.55 in 12 mi Calm Calm - -   Scattered Clouds
7:20 PM 39.2 °F 37.0 °F 35.6 °F 87% 29.53 in 6.2 mi South 3.5 mph - N/A   Partly Cloudy
7:50 PM 37.4 °F 34.9 °F 35.6 °F 93% 29.56 in 4.3 mi SSW 3.5 mph - N/A   Partly Cloudy
8:00 PM 38 °F - 35 °F 86% 29.57 in 4 mi SSW 2.2 mph - -   Scattered Clouds
8:20 PM 35.6 °F 31.7 °F 33.8 °F 93% 29.56 in 2.5 mi SW 4.6 mph - N/A   Partly Cloudy
8:50 PM 35.6 °F 32.8 °F 33.8 °F 93% 29.56 in 1.6 mi South 3.5 mph - N/A Fog Partly Cloudy
9:00 PM 35 °F - 33 °F 90% 29.58 in 2 mi South 2.2 mph - - Fog Patches of Fog
9:20 PM 33.8 °F - 32.0 °F 93% 29.56 in 0.3 mi SE 2.3 mph - N/A Fog Fog
9:50 PM 35.6 °F 31.7 °F 32.0 °F 87% 29.59 in 0.5 mi SE 4.6 mph - N/A Fog Fog
10:00 PM 35 °F - 33 °F 88% 29.60 in 0 mi SE 4.5 mph - - Fog Partial Fog
10:20 PM 33.8 °F - 33.8 °F 100% 29.59 in 0.4 mi South 2.3 mph - N/A Fog Fog
10:50 PM 33.8 °F - 32.0 °F 93% 29.59 in 0.2 mi Calm Calm - N/A Fog Fog
11:00 PM 34 °F - 32 °F 91% 29.61 in 0 mi Calm Calm - - Fog Partial Fog
11:20 PM 33.8 °F - 32.0 °F 93% 29.59 in 0.2 mi WSW 2.3 mph - N/A Fog Fog
11:50 PM 32.0 °F - 30.2 °F 93% 29.59 in 0.4 mi SW 1.2 mph - N/A Fog Fog